Location: Bun Machan
(52.1403°N, 7.3744°W)
Time: 16:58:02
(UTC+00:00)

Spot 1 - Pass Details

Date: 14 July 2020
Orbit: 575 x 777 km, 98.7° (Epoch: 13 August)

Event Time Altitude Azimuth Distance (km) Brightness Sun altitude
Exits shadow 01:48:09 20° 173° (S) 1,627 5.7 -14.5°
Maximum altitude 01:51:31 73° 256° (WSW) 738 4.3 -14.4°
Drops below altitude 10° 01:56:08 10° 341° (NNW) 2,112 7.6 -14.2°
Sets 01:58:19 0° 343° (NNW) 2,998 8.5 -14.0°
